User: anonymous   Login
Location: Unspecified
(0.0000°N, 0.0000°E)
Time: 01:46:51
(UTC+01:00)
Language:

Cosmos 407 Rocket - Orbit

View from above orbital plane
View from above orbital plane
View from above satellite
View from above satellite

Ground track
Ground track

The orbit data is extracted from the following two-line orbital elements,

1 05175U 71035B   17016.24026125  .00000053  00000-0  26009-4 0  9990
2 05175  74.0484 128.7518 0029792  13.0290 347.1626 14.37841599393109
Epoch (UTC): 16 January 2017 05:45:58
Eccentricity: 0.0029792
inclination: 74.0484°
perigee height: 744 km
apogee height: 787 km
right ascension of ascending node: 128.7518°
argument of perigee: 13.0290°
revolutions per day: 14.37841599
mean anomaly at epoch: 347.1626°
orbit number at epoch: 39310

The dashed part of the orbit path shows where the satellite is in the earth's shadow,  

DLR